Fortuna, CA

1:16 PM PDT on July 25, 2017 (GMT -0700)
Rohnerville

Weather History for KFOT - December, 2012

Change the Weather History Date:

Thursday, December 20, 2012

  Actual Average (KEKA) Record (KEKA)
Temperature  
Mean Temperature 46 °F -  
Max Temperature 48 °F 53 °F 71 °F (1977)
Min Temperature 44 °F 40 °F 27 °F (1998)
Degree Days  
Heating Degree Days 19    
Moisture  
Dew Point 45 °F    
Average Humidity 95    
Maximum Humidity 100    
Minimum Humidity 71    
Precipitation  
Precipitation 1.47 in - - ()
Sea Level Pressure  
Sea Level Pressure 29.86 in    
Wind  
Wind Speed 25 mph (SE)    
Max Wind Speed 36 mph    
Max Gust Speed 44 mph    
Visibility 7 miles    
Events      
Averages and records for this station are not official NWS values.
T = Trace of Precipitation, MM = Missing Value Source: NWS Daily Summary

Daily Weather History Graph

Daily Weather History Graph

Search for Another Location

Airport or City:

Trip Planner

Search our weather history database for the weather conditions in past years. The results will help you decide how hot, cold, wet, or windy it might be!

Date:

Astronomy

Dec. 20, 2012 Rise Set
Actual Time 7:36 AM PST 4:52 PM PST
Civil Twilight 7:05 AM PST 5:23 PM PST
Nautical Twilight 6:31 AM PST 5:57 PM PST
Astronomical Twilight 5:57 AM PST 6:31 PM PST
Moon 12:14 PM PST (12/20) 12:27 AM PST (12/20)
Length of Visible Light 10h 18m
Length of Day
9h 16m
First Quarter, 56% of the Moon is Illuminated
Dec 20
First Quarter
Dec 28
Full
Jan 4
Last Quarter
Jan 11
New
Jan 18
First Quarter

Hourly Weather History & Observations

Time (PST) Temp. Windchill Dew Point Humidity Pressure Visibility Wind Dir Wind Speed Gust Speed Precip Events Conditions
12:15 AM 46.4 °F 36.9 °F 37.4 °F 71% 29.94 in 10.0 mi SE 32.2 mph 39.1 mph N/A   Overcast
12:35 AM 46.4 °F 36.4 °F 37.4 °F 71% 29.94 in 10.0 mi ESE 35.7 mph 43.7 mph N/A   Overcast
12:55 AM 46.4 °F 36.5 °F 39.2 °F 76% 29.92 in 10.0 mi ESE 34.5 mph 43.7 mph N/A   Overcast
1:15 AM 44.6 °F 34.1 °F 39.2 °F 81% 29.92 in 8.0 mi SE 34.5 mph 43.7 mph N/A   Overcast
1:35 AM 44.6 °F 34.6 °F 41.0 °F 87% 29.91 in 7.0 mi ESE 31.1 mph 42.6 mph N/A   Overcast
1:55 AM 44.6 °F 34.4 °F 41.0 °F 87% 29.91 in 9.0 mi ESE 32.2 mph 40.3 mph N/A   Overcast
2:15 AM 44.6 °F 34.6 °F 41.0 °F 87% 29.91 in 8.0 mi ESE 31.1 mph 40.3 mph N/A   Overcast
2:35 AM 46.4 °F 37.2 °F 39.2 °F 76% 29.90 in 8.0 mi SE 29.9 mph 40.3 mph N/A   Overcast
2:55 AM 44.6 °F 35.1 °F 41.0 °F 87% 29.90 in 4.0 mi SE 27.6 mph 36.8 mph N/A   Overcast
3:15 AM 44.6 °F 34.2 °F 41.0 °F 87% 29.88 in 5.0 mi SE 33.4 mph 39.1 mph N/A   Overcast
3:35 AM 44.6 °F 34.6 °F 42.8 °F 93% 29.87 in 5.0 mi SE 31.1 mph 40.3 mph N/A   Overcast
3:55 AM 44.6 °F 34.7 °F 42.8 °F 93% 29.87 in 5.0 mi SE 29.9 mph 39.1 mph 0.01 in   Overcast
4:15 AM 44.6 °F 34.6 °F 44.6 °F 100% 29.85 in 4.0 mi ESE 31.1 mph 39.1 mph 0.01 in   Overcast
4:35 AM 44.6 °F 34.6 °F 44.6 °F 100% 29.84 in 5.0 mi SE 31.1 mph 40.3 mph 0.01 in   Overcast
4:55 AM 44.6 °F 34.7 °F 44.6 °F 100% 29.83 in 4.0 mi ESE 29.9 mph 38.0 mph 0.01 in   Overcast
5:10 AM 44.6 °F 34.7 °F 44.6 °F 100% 29.82 in 5.0 mi SE 29.9 mph 40.3 mph 0.01 in   Overcast
5:35 AM 44.6 °F 34.9 °F 44.6 °F 100% 29.81 in 5.0 mi SE 28.8 mph 35.7 mph 0.02 in   Overcast
5:55 AM 44.6 °F 34.9 °F 44.6 °F 100% 29.82 in 4.0 mi SE 28.8 mph 38.0 mph 0.04 in   Overcast
6:15 AM 44.6 °F 34.7 °F 44.6 °F 100% 29.81 in 5.0 mi SE 29.9 mph 36.8 mph 0.01 in   Overcast
6:35 AM 46.4 °F 37.4 °F 44.6 °F 93% 29.79 in 9.0 mi SE 28.8 mph 42.6 mph 0.02 in   Overcast
6:55 AM 46.4 °F 37.7 °F 44.6 °F 93% 29.79 in 5.0 mi SE 26.5 mph 39.1 mph 0.04 in   Overcast
7:15 AM 46.4 °F 37.7 °F 46.4 °F 100% 29.79 in 7.0 mi SE 26.5 mph 36.8 mph 0.01 in   Overcast
7:35 AM 46.4 °F 37.2 °F 46.4 °F 100% 29.79 in 5.0 mi SE 29.9 mph 35.7 mph 0.03 in   Mostly Cloudy
7:55 AM 46.4 °F 37.9 °F 46.4 °F 100% 29.79 in 4.0 mi SE 25.3 mph 35.7 mph 0.07 in   Overcast
8:15 AM 46.4 °F 38.1 °F 46.4 °F 100% 29.80 in 4.0 mi SE 24.2 mph 32.2 mph 0.03 in   Overcast
8:35 AM 46.4 °F 38.1 °F 46.4 °F 100% 29.82 in 5.0 mi SE 24.2 mph 31.1 mph 0.05 in   Overcast
8:55 AM 48.2 °F - 46.4 °F 93% 29.84 in 4.0 mi SE 16.1 mph 28.8 mph 0.09 in   Mostly Cloudy
9:15 AM 48.2 °F - 46.4 °F 93% 29.86 in 5.0 mi SSE 4.6 mph - 0.03 in   Overcast
9:55 AM 46.4 °F 41.9 °F 46.4 °F 100% 29.89 in 5.0 mi NNW 9.2 mph - 0.16 in   Overcast
10:15 AM 44.6 °F - 44.6 °F 100% 29.91 in 3.0 mi Calm Calm - 0.08 in   Overcast
10:35 AM 44.6 °F - 44.6 °F 100% 29.91 in 3.0 mi Calm Calm - 0.14 in   Mostly Cloudy
10:55 AM 46.4 °F 41.9 °F 46.4 °F 100% 29.91 in 3.0 mi SSE 9.2 mph - 0.22 in   Scattered Clouds
11:15 AM 46.4 °F 42.9 °F 44.6 °F 93% 29.91 in 3.0 mi SSE 6.9 mph - 0.04 in   Scattered Clouds
11:35 AM 46.4 °F 41.9 °F 46.4 °F 100% 29.90 in 2.5 mi SSE 9.2 mph - 0.14 in   Scattered Clouds
11:55 AM 46.4 °F 42.4 °F 46.4 °F 100% 29.90 in 3.0 mi South 8.1 mph - 0.23 in   Mostly Cloudy
12:15 PM 46.4 °F 41.5 °F 44.6 °F 93% 29.90 in 5.0 mi South 10.4 mph - 0.03 in   Mostly Cloudy
12:35 PM 46.4 °F 42.4 °F 44.6 °F 93% 29.90 in 3.0 mi SSE 8.1 mph - 0.11 in   Scattered Clouds
12:55 PM 46.4 °F 41.9 °F 46.4 °F 100% 29.89 in 3.0 mi ESE 9.2 mph - 0.22 in   Mostly Cloudy
1:15 PM 46.4 °F 41.9 °F 46.4 °F 100% 29.89 in 4.0 mi SE 9.2 mph - 0.05 in   Overcast
1:35 PM 46.4 °F 40.7 °F 46.4 °F 100% 29.88 in 3.0 mi ESE 12.7 mph - 0.09 in   Overcast
1:55 PM 46.4 °F 41.5 °F 46.4 °F 100% 29.88 in 3.0 mi SE 10.4 mph - 0.14 in   Mostly Cloudy
2:15 PM 46.4 °F 40.1 °F 46.4 °F 100% 29.87 in 4.0 mi SE 15.0 mph - 0.03 in   Mostly Cloudy
2:35 PM 46.4 °F 39.5 °F 46.4 °F 100% 29.87 in 4.0 mi ESE 17.3 mph - 0.08 in   Mostly Cloudy
2:55 PM 46.4 °F 39.5 °F 46.4 °F 100% 29.86 in 5.0 mi ESE 17.3 mph - 0.11 in   Scattered Clouds
3:15 PM 46.4 °F 39.0 °F 46.4 °F 100% 29.86 in 7.0 mi ESE 19.6 mph 23.0 mph 0.01 in   Partly Cloudy
3:35 PM 46.4 °F 39.2 °F 46.4 °F 100% 29.85 in 7.0 mi ESE 18.4 mph - 0.03 in   Mostly Cloudy
3:55 PM 46.4 °F 38.7 °F 46.4 °F 100% 29.83 in 8.0 mi SE 20.7 mph - 0.04 in   Mostly Cloudy
4:15 PM 46.4 °F 38.5 °F 46.4 °F 100% 29.82 in 9.0 mi ESE 21.9 mph - 0.01 in   Overcast
4:35 PM 46.4 °F 38.5 °F 46.4 °F 100% 29.83 in 10.0 mi ESE 21.9 mph 29.9 mph 0.01 in   Mostly Cloudy
4:55 PM 46.4 °F 38.7 °F 46.4 °F 100% 29.83 in 10.0 mi ESE 20.7 mph 27.6 mph 0.01 in   Overcast
5:15 PM 46.4 °F 38.3 °F 44.6 °F 93% 29.83 in 10.0 mi ESE 23.0 mph 29.9 mph N/A   Overcast
5:35 PM 46.4 °F 39.0 °F 44.6 °F 93% 29.83 in 10.0 mi ESE 19.6 mph - 0.01 in   Overcast
5:55 PM 46.4 °F 38.7 °F 44.6 °F 93% 29.84 in 10.0 mi ESE 20.7 mph - 0.01 in   Overcast
6:15 PM 46.4 °F 39.5 °F 46.4 °F 100% 29.83 in 10.0 mi ESE 17.3 mph 21.9 mph N/A   Overcast
6:35 PM 46.4 °F 39.0 °F 46.4 °F 100% 29.83 in 10.0 mi ESE 19.6 mph 24.2 mph N/A   Overcast
6:55 PM 46.4 °F 38.3 °F 46.4 °F 100% 29.83 in 10.0 mi ESE 23.0 mph 29.9 mph N/A   Overcast
7:15 PM 46.4 °F 39.0 °F 46.4 °F 100% 29.83 in 10.0 mi ESE 19.6 mph 25.3 mph N/A   Overcast
7:35 PM 46.4 °F 38.1 °F 44.6 °F 93% 29.83 in 10.0 mi ESE 24.2 mph - N/A   Overcast
7:55 PM 46.4 °F 38.3 °F 44.6 °F 93% 29.83 in 10.0 mi ESE 23.0 mph 29.9 mph N/A   Overcast
8:15 PM 46.4 °F 38.5 °F 44.6 °F 93% 29.83 in 10.0 mi ESE 21.9 mph 27.6 mph N/A   Overcast
8:55 PM 46.4 °F 39.2 °F 44.6 °F 93% 29.84 in 10.0 mi ESE 18.4 mph - N/A   Overcast
9:15 PM 46.4 °F 39.5 °F 44.6 °F 93% 29.84 in 10.0 mi ESE 17.3 mph 23.0 mph N/A   Overcast
9:35 PM 46.4 °F 40.1 °F 44.6 °F 93% 29.84 in 10.0 mi ESE 15.0 mph 23.0 mph 0.01 in   Overcast
9:55 PM 46.4 °F 40.4 °F 44.6 °F 93% 29.84 in 10.0 mi ESE 13.8 mph 21.9 mph 0.01 in   Overcast
10:15 PM 46.4 °F 40.1 °F 44.6 °F 93% 29.84 in 10.0 mi ESE 15.0 mph - N/A   Overcast
10:35 PM 46.4 °F 41.5 °F 46.4 °F 100% 29.85 in 8.0 mi SE 10.4 mph - 0.01 in   Overcast
10:55 PM 46.4 °F 41.5 °F 46.4 °F 100% 29.84 in 9.0 mi SE 10.4 mph - 0.03 in   Overcast
11:15 PM 46.4 °F 41.5 °F 46.4 °F 100% 29.83 in 9.0 mi ESE 10.4 mph - N/A   Overcast
11:55 PM 46.4 °F 41.9 °F 46.4 °F 100% 29.84 in 5.0 mi ESE 9.2 mph - 0.03 in   Overcast